Tracking 30143 objects as of 20-Jan-2025
HD Live streaming from Space Station
objects crossing your sky now

SEA LAUNCH DEMO

Track SEA LAUNCH DEMO now!
SEA LAUNCH DEMO is classified as:


NORAD ID: 25661
Int'l Code: 1999-014A
Perigee: 613.2 km
Apogee: 36,102.2 km
Inclination: 0.6 °
Period: 645.0 minutes
Semi major axis: 24728 km
RCS: 5.9526 m2 (large)
Launch date: March 28, 1999
Source: Sea Launch (SEAL)
Launch site: SEA LAUNCH (SEAL)
Your satellite tracking list
Your tracking list is empty




NASA's NSSDC Master Catalog

Two Line Element Set (TLE):
1 25661U 99014A   25020.47832685 -.00000132  00000-0  27073-3 0  9994
2 25661   0.6235 146.6861 7175682 316.2792 339.3938  2.23255139210650
Source of the keplerian elements: AFSPC